Weather reports worldwide

Advertisment
Mona Airfield, United Kingdom (3301): temperature & dewpoint: 14.10.2018 15:00:00 - 20.10.2018 15:00:00 (BST)Mona Airfield, United Kingdom (3301): wind speed & gusts: 14.10.2018 15:00:00 - 20.10.2018 15:00:00 (BST)Mona Airfield, United Kingdom (3301): wind direction: 14.10.2018 15:00:00 - 20.10.2018 15:00:00 (BST)Mona Airfield, United Kingdom (3301): reduced air pressure: 14.10.2018 15:00:00 - 20.10.2018 15:00:00 (BST)Mona Airfield, United Kingdom (3301): visibility: 14.10.2018 15:00:00 - 20.10.2018 15:00:00 (BST)Mona Airfield, United Kingdom (3301): precipitation: 14.10.2018 15:00:00 - 20.10.2018 15:00:00 (BST)
Date & Time tt [°C] td [°C] ff [km/h] ff [kn] fx [km/h] fx [kn] dd ppp [hPa] vv [km] rr [mm]
20.10.2018 15:00:00 - - - - - - - - - -
20.10.2018 14:00:00 14,7 11,9 34 18 54 29 SSW 1029,9 21 0,0
20.10.2018 13:00:00 15,2 12,3 39 21 52 28 SSW 1029,6 22 0,0
20.10.2018 12:00:00 14,8 12,4 35 19 - - SSW 1030,0 18 0,0
20.10.2018 11:00:00 14,1 12,2 34 18 - - SSW 1029,9 17 -
20.10.2018 10:00:00 13,8 12,1 28 15 - - SSW 1029,8 19 0,0
20.10.2018 09:00:00 13,2 12,0 26 14 - - SSW 1029,3 19 0,0
20.10.2018 08:00:00 12,8 11,5 29 16 - - SSW 1028,7 21 0,0
20.10.2018 07:00:00 12,7 11,5 28 15 - - SSW 1028,6 21 0,0
20.10.2018 06:00:00 12,6 11,2 28 15 - - SSW 1028,2 22 0,0
20.10.2018 05:00:00 12,5 11,3 22 12 - - SSW 1028,2 21 0,0
20.10.2018 04:00:00 12,1 11,2 21 11 - - SSW 1028,3 18 0,0
20.10.2018 03:00:00 12,0 11,1 18 10 - - SSW 1028,5 17 0,0
20.10.2018 02:00:00 11,7 10,8 21 11 - - SSW 1028,2 16 0,0
20.10.2018 01:00:00 11,6 10,6 16 9 - - SSW 1028,1 17 0,0
20.10.2018 00:00:00 11,5 10,6 18 10 - - SSW 1027,9 15 0,0
19.10.2018 23:00:00 11,9 11,2 16 9 - - S 1027,7 12 0,0
19.10.2018 22:00:00 11,5 11,0 11 6 - - S 1027,8 11 0,0
19.10.2018 21:00:00 10,2 9,4 11 6 - - SSW 1027,8 8 0,0
19.10.2018 20:00:00 12,2 11,0 15 8 - - SSW 1026,7 14 0,0
19.10.2018 19:00:00 12,5 11,4 11 6 - - SSW 1026,5 13 0,0
19.10.2018 18:00:00 12,9 11,2 15 8 - - SSW 1025,9 18 0,0
19.10.2018 17:00:00 13,6 11,2 18 10 - - SW 1025,9 22 0,0
19.10.2018 16:00:00 13,8 11,0 21 11 - - SW 1026,0 24 0,0
19.10.2018 15:00:00 14,1 9,9 22 12 - - SW 1025,8 26 0,0
19.10.2018 14:00:00 14,0 9,9 22 12 - - SW 1025,7 29 0,0
19.10.2018 13:00:00 15,0 9,9 28 15 - - SW 1024,9 29 0,0
19.10.2018 12:00:00 13,8 10,1 24 13 - - SW 1025,4 28 0,0
19.10.2018 11:00:00 12,6 10,6 28 15 - - SSW 1025,6 12 0,0
19.10.2018 10:00:00 11,4 10,1 21 11 - - SSW 1025,3 9 0,0
19.10.2018 09:00:00 11,0 10,1 13 7 - - SSW 1025,1 9 0,0
19.10.2018 08:00:00 9,0 8,2 8 4 - - SSW 1024,8 18 0,0
19.10.2018 07:00:00 8,0 6,3 9 5 - - SSW 1024,4 17 0,0
19.10.2018 06:00:00 9,0 6,9 16 9 - - SW 1024,7 21 0,0
19.10.2018 05:00:00 9,6 8,2 18 10 - - SW 1024,7 20 0,0
19.10.2018 04:00:00 7,8 7,2 9 5 - - SSW 1025,1 9 0,0
19.10.2018 03:00:00 6,3 6,0 11 6 - - SSW 1025,8 15 0,0
19.10.2018 02:00:00 2,3 2,0 8 4 - - SSE 1025,6 15 0,0
19.10.2018 01:00:00 1,0 0,4 0 0 - - N 1026,1 14 0,0
19.10.2018 00:00:00 1,9 1,3 2 1 - - ESE 1026,9 12 0,0
18.10.2018 23:00:00 2,0 1,2 2 1 - - NNE 1027,1 15 0,0
18.10.2018 22:00:00 2,6 1,5 4 2 - - ENE 1027,2 18 0,0
18.10.2018 21:00:00 4,2 2,6 8 4 - - NE 1026,9 20 0,0
18.10.2018 20:00:00 4,9 2,2 8 4 - - NE 1027,0 19 0,0
18.10.2018 19:00:00 6,2 2,4 8 4 - - NE 1027,0 24 0,0
18.10.2018 18:00:00 8,8 3,1 8 4 - - NNE 1027,4 35 0,0
18.10.2018 17:00:00 11,0 4,0 13 7 - - ENE 1027,2 30 0,0
18.10.2018 16:00:00 12,1 3,1 15 8 - - ENE 1027,6 35 0,0
18.10.2018 15:00:00 12,4 3,6 13 7 - - E 1028,1 30 0,0
18.10.2018 14:00:00 12,5 3,7 9 5 - - ENE 1028,7 30 0,0
18.10.2018 13:00:00 11,9 6,7 9 5 - - E 1029,0 30 0,0
18.10.2018 12:00:00 11,5 6,3 4 2 - - ENE 1029,6 30 0,0
18.10.2018 11:00:00 11,2 6,9 2 1 - - ESE 1029,9 30 0,0
18.10.2018 10:00:00 11,1 7,9 5 3 - - NNE 1029,6 24 0,0
18.10.2018 09:00:00 4,6 4,1 2 1 - - NNW 1029,6 30 0,0
18.10.2018 08:00:00 2,1 0,8 5 3 - - N 1029,4 29 0,0
18.10.2018 07:00:00 4,7 3,2 8 4 - - N 1029,1 30 0,0
18.10.2018 06:00:00 4,7 3,5 8 4 - - N 1028,6 35 0,0
18.10.2018 05:00:00 4,2 3,2 8 4 - - NNE 1028,4 22 0,0
18.10.2018 04:00:00 5,1 4,1 8 4 - - NNE 1028,3 23 0,0
18.10.2018 03:00:00 5,0 4,4 8 4 - - NNE 1028,3 30 0,0
18.10.2018 02:00:00 3,7 2,9 5 3 - - NNE 1028,2 30 0,0
18.10.2018 01:00:00 3,5 2,0 9 5 - - NNE 1028,5 18 0,0
18.10.2018 00:00:00 4,7 3,2 8 4 - - N 1028,1 17 0,0
17.10.2018 23:00:00 4,7 3,6 8 4 - - N 1027,6 23 0,0
17.10.2018 22:00:00 4,4 3,0 5 3 - - NNE 1026,9 17 0,0
17.10.2018 21:00:00 6,9 5,0 9 5 - - NNW 1026,4 22 0,0
17.10.2018 20:00:00 6,7 5,2 8 4 - - NNW 1025,8 16 0,0
17.10.2018 19:00:00 8,0 5,7 9 5 - - N 1025,0 30 0,0
17.10.2018 18:00:00 10,6 7,2 9 5 - - N 1023,8 30 0,0
17.10.2018 17:00:00 12,1 7,4 15 8 - - N 1022,9 35 0,0
17.10.2018 16:00:00 12,2 9,0 16 9 - - NNW 1022,3 30 0,0
17.10.2018 15:00:00 12,3 9,4 16 9 - - WNW 1021,7 35 0,0
17.10.2018 14:00:00 12,8 9,9 13 7 - - NW 1021,1 30 0,0
17.10.2018 13:00:00 11,9 10,5 16 9 - - WNW 1020,9 22 0,0
17.10.2018 12:00:00 11,8 10,8 15 8 - - WNW 1020,3 15 0,0
17.10.2018 11:00:00 12,2 11,9 4 2 - - WSW 1019,6 16 0,0
17.10.2018 10:00:00 10,5 10,3 2 1 - - ESE 1018,8 12 0,0
17.10.2018 09:00:00 10,1 9,8 4 2 - - W 1018,0 13 0,0
17.10.2018 08:00:00 9,1 8,8 5 3 - - WSW 1017,0 11 0,0
17.10.2018 07:00:00 7,7 7,4 4 2 - - SW 1016,5 4,5 0,0
17.10.2018 06:00:00 8,5 8,1 5 3 - - WSW 1015,8 9 0,0
17.10.2018 05:00:00 8,1 7,2 5 3 - - SW 1015,3 6 0,0
17.10.2018 04:00:00 11,0 10,2 9 5 - - W 1014,8 14 0,0
17.10.2018 03:00:00 10,6 10,2 9 5 - - WSW 1014,6 10 0,0
17.10.2018 02:00:00 11,9 11,6 9 5 - - SW 1014,3 9 0,0
17.10.2018 01:00:00 12,9 12,5 13 7 - - SW 1014,0 8 0,0
17.10.2018 00:00:00 12,9 12,5 15 8 - - SW 1013,6 11 0,0
16.10.2018 23:00:00 13,5 13,2 22 12 - - SSW 1013,2 13 0,0
16.10.2018 22:00:00 13,1 12,8 28 15 - - SSW 1013,0 21 0,4
16.10.2018 21:00:00 12,7 12,3 35 19 46 25 SSW 1012,7 3,5 0,6
16.10.2018 20:00:00 12,5 12,1 34 18 48 26 S 1012,4 5 0,4
16.10.2018 19:00:00 12,3 11,8 35 19 50 27 S 1012,5 2,4 0,6
16.10.2018 18:00:00 12,2 11,6 31 17 46 25 SSW 1012,4 4,5 0,6
16.10.2018 17:00:00 12,6 11,2 35 19 48 26 SSW 1012,2 2,6 0,0
16.10.2018 16:00:00 13,4 10,5 34 18 50 27 SSW 1012,4 29 0,0
16.10.2018 15:00:00 14,1 10,7 37 20 54 29 SSW 1012,4 30 0,0
16.10.2018 14:00:00 15,0 10,8 42 23 54 29 SSW 1012,3 30 0,0
16.10.2018 13:00:00 15,0 11,8 39 21 54 29 SSW 1012,4 28 0,0
16.10.2018 12:00:00 14,1 12,2 39 21 52 28 SSW 1012,4 28 0,0
16.10.2018 11:00:00 13,1 12,2 31 17 - - SSW 1012,4 25 0,0
16.10.2018 10:00:00 12,8 12,4 31 17 - - SSW 1012,5 11 0,2
16.10.2018 09:00:00 13,0 12,6 28 15 - - SSW 1012,3 4,3 0,0
16.10.2018 08:00:00 12,2 11,7 22 12 - - S 1011,9 2,8 0,0
16.10.2018 07:00:00 11,9 11,3 18 10 - - S 1012,2 14 0,0
16.10.2018 06:00:00 11,7 11,0 15 8 - - S 1011,9 11 0,0
16.10.2018 05:00:00 11,3 10,8 11 6 - - S 1012,2 8 0,0
16.10.2018 04:00:00 11,3 10,5 13 7 - - S 1013,0 7 0,0
16.10.2018 03:00:00 11,2 9,3 8 4 - - S 1013,3 15 0,0
16.10.2018 02:00:00 10,4 9,3 4 2 - - E 1013,3 10 0,0
16.10.2018 01:00:00 10,4 9,1 4 2 - - E 1013,7 11 0,0
16.10.2018 00:00:00 10,3 8,9 2 1 - - SE 1014,2 13 0,0
15.10.2018 23:00:00 10,0 8,6 4 2 - - E 1014,5 11 0,0
15.10.2018 22:00:00 9,7 8,3 4 2 - - ENE 1014,7 13 0,0
15.10.2018 21:00:00 9,5 8,1 5 3 - - NE 1014,7 16 0,0
15.10.2018 20:00:00 8,7 7,2 5 3 - - ENE 1014,6 17 0,0
15.10.2018 19:00:00 8,3 6,8 11 6 - - ENE 1014,6 22 0,0
15.10.2018 18:00:00 10,5 7,5 16 9 - - ENE 1014,3 25 0,0
15.10.2018 17:00:00 11,4 7,5 21 11 - - ENE 1014,5 35 0,0
15.10.2018 16:00:00 11,7 7,6 24 13 - - NE 1014,6 35 0,0
15.10.2018 15:00:00 12,3 7,7 22 12 - - ENE 1014,7 30 0,0
15.10.2018 14:00:00 12,6 7,9 21 11 - - NE 1014,9 35 0,0
15.10.2018 13:00:00 12,4 7,6 18 10 - - NE 1014,9 35 0,0
15.10.2018 12:00:00 11,9 8,1 18 10 - - ENE 1014,9 35 0,0
15.10.2018 11:00:00 11,5 9,3 18 10 - - ENE 1014,7 27 0,0
15.10.2018 10:00:00 9,6 8,8 15 8 - - NE 1014,6 20 0,0
15.10.2018 09:00:00 4,2 3,9 8 4 - - ENE 1014,3 7 0,2
15.10.2018 08:00:00 3,8 3,5 8 4 - - NE 1013,9 4,8 0,0
15.10.2018 07:00:00 4,0 3,8 9 5 - - NNE 1013,7 3,6 0,0
15.10.2018 06:00:00 3,1 2,7 9 5 - - NNE 1013,3 4,1 0,0
15.10.2018 05:00:00 5,6 5,5 9 5 - - NNE 1013,2 14 0,0
15.10.2018 04:00:00 3,4 3,0 9 5 - - NNE 1013,1 15 0,0
15.10.2018 03:00:00 3,7 3,3 8 4 - - N 1013,0 7 0,0
15.10.2018 02:00:00 3,2 2,9 5 3 - - NE 1012,9 8 0,0
15.10.2018 01:00:00 3,1 2,5 5 3 - - NE 1013,0 8 0,0
15.10.2018 00:00:00 3,8 3,1 8 4 - - NE 1012,4 5 0,0
14.10.2018 23:00:00 5,3 4,6 8 4 - - NNE 1012,2 28 0,0
14.10.2018 22:00:00 5,9 4,9 8 4 - - NNE 1012,0 19 0,0
14.10.2018 21:00:00 5,3 4,3 8 4 - - NE 1011,8 12 0,0
14.10.2018 20:00:00 6,9 5,5 9 5 - - N 1011,5 22 0,0
14.10.2018 19:00:00 7,0 5,0 8 4 - - NNE 1011,0 29 0,0
14.10.2018 18:00:00 9,3 6,2 5 3 - - NNE 1010,5 35 0,0
14.10.2018 17:00:00 11,9 6,8 13 7 - - NNE 1010,0 40 0,0
14.10.2018 16:00:00 12,5 6,6 11 6 - - N 1009,6 35 0,0
14.10.2018 15:00:00 12,6 7,1 13 7 - - N 1009,1 35 0,0

tt = temperature
td = dewpoint
ff = wind speed
fx = gusts
dd = wind direction
ppp = reduced air pressure
vv = visibility
rr = precipitation

Next stations